Pensacola, FL

4:19 AM CDT on August 25, 2016 (GMT -0500)
Pensacola Naval Air Station

Weather History for KNPA - July, 2013

Change the Weather History Date:

Saturday, July 27, 2013

  Actual Average Record
Temperature  
Mean Temperature 78 °F -  
Max Temperature 84 °F 87 °F 99 °F (2006)
Min Temperature 73 °F 72 °F 69 °F (2000)
Cooling Degree Days 14    
Growing Degree Days 28 (Base 50)    
Moisture  
Dew Point 74 °F    
Average Humidity 87    
Maximum Humidity 100    
Minimum Humidity 63    
Precipitation  
Precipitation 0.02 in - - ()
Sea Level Pressure  
Sea Level Pressure 29.95 in    
Wind  
Wind Speed 2 mph (West)    
Max Wind Speed 10 mph    
Max Gust Speed 17 mph    
Visibility 10 miles    
Events Rain , Thunderstorm    
Averages and records for this station are not official NWS values.
T = Trace of Precipitation, MM = Missing Value Source: NWS Daily Summary

Daily Weather History Graph

Daily Weather History Graph

Search for Another Location

Airport or City:

Trip Planner

Search our weather history database for the weather conditions in past years. The results will help you decide how hot, cold, wet, or windy it might be!

Date:

Astronomy

Jul. 27, 2013 Rise Set
Actual Time 6:04 AM CDT 7:46 PM CDT
Civil Twilight 5:38 AM CDT 8:12 PM CDT
Nautical Twilight 5:06 AM CDT 8:44 PM CDT
Astronomical Twilight 4:33 AM CDT 9:17 PM CDT
Moon 11:04 PM CDT (7/27) 11:16 AM CDT (7/27)
Length of Visible Light 14h 34m
Length of Day
13h 41m
Waning Gibbous, 70% of the Moon is Illuminated
Jul 27
Waning Gibbous
Jul 29
Last Quarter
Aug 6
New
Aug 14
First Quarter
Aug 20
Full

Hourly Weather History & Observations

Time (CDT) Temp. Heat Index Dew Point Humidity Pressure Visibility Wind Dir Wind Speed Gust Speed Precip Events Conditions
12:56 AM 75.9 °F - 75.0 °F 97% 29.97 in 10.0 mi Calm Calm - N/A   Clear
1:56 AM 80.1 °F 85.4 °F 75.9 °F 87% 29.96 in 10.0 mi WSW 3.5 mph - N/A   Clear
2:56 AM 80.1 °F 85.4 °F 75.9 °F 87% 29.96 in 10.0 mi WSW 4.6 mph - N/A   Clear
3:56 AM 78.1 °F - 75.0 °F 90% 29.95 in 10.0 mi Calm Calm - N/A   Clear
4:56 AM 75.9 °F - 75.0 °F 97% 29.95 in 8.0 mi Calm Calm - N/A   Clear
5:56 AM 75.0 °F - 73.9 °F 96% 29.96 in 8.0 mi Calm Calm - N/A   Clear
6:56 AM 77.0 °F - 75.9 °F 96% 29.97 in 6.0 mi Calm Calm - N/A   Clear
7:56 AM 82.9 °F 91.8 °F 77.0 °F 82% 29.98 in 10.0 mi Variable 6.9 mph - N/A   Clear
8:56 AM 84.9 °F 95.3 °F 77.0 °F 77% 29.97 in 10.0 mi Variable 4.6 mph - N/A   Mostly Cloudy
9:56 AM 81.0 °F 85.8 °F 73.0 °F 77% 29.97 in 10.0 mi NW 3.5 mph - 0.00 in   Overcast
10:56 AM 82.9 °F 87.5 °F 71.1 °F 67% 29.97 in 10.0 mi Calm Calm - N/A   Overcast
11:56 AM 84.0 °F 88.4 °F 70.0 °F 63% 29.98 in 10.0 mi Calm Calm - N/A   Overcast
12:56 PM 82.9 °F 87.5 °F 71.1 °F 67% 29.98 in 10.0 mi WSW 3.5 mph - N/A   Overcast
1:23 PM 82.4 °F 87.2 °F 71.6 °F 70% 29.97 in 10.0 mi SW 5.8 mph - N/A Thunderstorm Thunderstorm
1:56 PM 77.0 °F - 73.0 °F 88% 29.98 in 8.0 mi West 10.4 mph 17.3 mph 0.00 in Rain , Thunderstorm Light Thunderstorms and Rain
2:19 PM 75.2 °F - 75.2 °F 100% 29.96 in 7.0 mi Calm Calm - 0.01 in Rain Light Rain
2:56 PM 75.9 °F - 73.9 °F 94% 29.95 in 10.0 mi Calm Calm - 0.01 in Rain Light Rain
3:56 PM 77.0 °F - 75.0 °F 94% 29.93 in 10.0 mi Calm Calm - 0.00 in Rain Light Rain
4:56 PM 78.1 °F - 73.9 °F 87% 29.93 in 10.0 mi Calm Calm - 0.00 in   Overcast
5:30 PM 80.6 °F 85.4 °F 73.4 °F 79% 29.92 in 10.0 mi Calm Calm - N/A   Overcast
5:56 PM 80.1 °F 84.2 °F 73.0 °F 79% 29.94 in 10.0 mi Calm Calm - N/A   Clear
6:56 PM 79.0 °F - 73.9 °F 84% 29.94 in 10.0 mi Calm Calm - N/A   Clear
7:56 PM 77.0 °F - 75.0 °F 94% 29.94 in 10.0 mi Calm Calm - 0.00 in Rain Light Rain
8:41 PM 75.2 °F - 71.6 °F 89% 29.93 in 10.0 mi Variable 3.5 mph - 0.00 in Rain Light Rain
8:56 PM 73.9 °F - 72.0 °F 93% 29.95 in 10.0 mi NW 4.6 mph - 0.00 in Rain Light Rain
9:04 PM 73.4 °F - 71.6 °F 94% 29.95 in 10.0 mi WNW 4.6 mph - 0.00 in Rain Light Rain
9:36 PM 73.4 °F - 71.6 °F 94% 29.95 in 10.0 mi Calm Calm - 0.00 in Thunderstorm Thunderstorm
9:54 PM 73.4 °F - 73.4 °F 100% 29.94 in 10.0 mi Calm Calm - 0.00 in   Overcast
9:56 PM 73.9 °F - 73.0 °F 97% 29.94 in 10.0 mi Calm Calm - 0.00 in   Mostly Cloudy
10:56 PM 75.0 °F - 73.9 °F 96% 29.94 in 10.0 mi Calm Calm - N/A   Overcast
11:56 PM 77.0 °F - 73.9 °F 90% 29.94 in 10.0 mi SE 3.5 mph - 0.01 in Rain Light Rain